{"data":{"norad_id":64172,"epoch":"2026-09-20T12:30:22.972608Z","epoch_age_seconds":138549,"freshness":"FRESH","line1":"1 64172U 25113C   26263.52109922  .00016663  00000+0  54723-3 0  9996","line2":"2 64172  53.1575 264.8216 0001290  85.0321 275.0828 15.31717354 74918","mean_motion":15.31717354,"eccentricity":0.000129,"inclination_deg":53.1575,"raan_deg":264.8216,"arg_perigee_deg":85.0321,"mean_anomaly_deg":275.0828,"bstar":0.00054723,"rev_number":7491,"period_min":94.012122813619,"perigee_km":469.804765884,"apogee_km":471.5717628022,"semimajor_km":6848.8252643431,"source":"CELESTRAK","updated_at":"2026-09-21T09:00:35.243021Z"}}